Kill Devil Hills, NC

3:01 PM EST on November 19, 2017 (GMT -0500)
First Flight

Weather History for KFFA - March, 2013

Change the Weather History Date:

Wednesday, March 13, 2013

  Actual Average (KMQI) Record (KMQI)
Temperature  
Mean Temperature 46 °F -  
Max Temperature 52 °F 54 °F 83 °F (1990)
Min Temperature 40 °F 42 °F 10 °F (1984)
Degree Days  
Heating Degree Days 19    
Moisture  
Dew Point 33 °F    
Average Humidity 65    
Maximum Humidity 98    
Minimum Humidity 35    
Precipitation  
Precipitation 0.00 in - - ()
Sea Level Pressure  
Sea Level Pressure 29.96 in    
Wind  
Wind Speed 8 mph (NNW)    
Max Wind Speed 14 mph    
Max Gust Speed 23 mph    
Visibility 10 miles    
Events      
Averages and records for this station are not official NWS values.
T = Trace of Precipitation, MM = Missing Value Source: NWS Daily Summary

Daily Weather History Graph

Daily Weather History Graph

Search for Another Location

Airport or City:

Trip Planner

Search our weather history database for the weather conditions in past years. The results will help you decide how hot, cold, wet, or windy it might be!

Date:

Astronomy

Mar. 13, 2013 Rise Set
Actual Time 7:16 AM EDT 7:08 PM EDT
Civil Twilight 6:50 AM EDT 7:34 PM EDT
Nautical Twilight 6:20 AM EDT 8:03 PM EDT
Astronomical Twilight 5:50 AM EDT 8:33 PM EDT
Moon 7:59 AM EDT (3/13) 9:17 PM EDT (3/13)
Length of Visible Light 12h 43m
Length of Day
11h 52m
Waxing Crescent, 4% of the Moon is Illuminated
Mar 13
Waxing Crescent
Mar 19
First Quarter
Mar 27
Full
Apr 3
Last Quarter
Apr 10
New

Hourly Weather History & Observations

Time (EDT) Temp. Windchill Dew Point Humidity Pressure Visibility Wind Dir Wind Speed Gust Speed Precip Events Conditions
12:15 AM 46.6 °F - 46.0 °F 98% 29.85 in 10.0 mi North 8.1 mph - N/A   Overcast
12:35 AM 46.0 °F 41.0 °F 45.0 °F 96% 29.86 in 10.0 mi North 10.4 mph 18.4 mph N/A   Overcast
12:55 AM 45.9 °F 40.0 °F 44.2 °F 94% 29.87 in 10.0 mi North 12.7 mph 20.7 mph N/A   Overcast
1:15 AM 45.5 °F 39.2 °F 42.1 °F 88% 29.88 in 10.0 mi NNW 13.8 mph 21.9 mph N/A   Overcast
1:35 AM 45.5 °F 39.6 °F 39.7 °F 80% 29.88 in 10.0 mi NNW 12.7 mph 23.0 mph N/A   Overcast
1:55 AM 45.1 °F 39.1 °F 38.3 °F 77% 29.89 in 10.0 mi North 12.7 mph 20.7 mph N/A   Overcast
2:15 AM 44.2 °F 38.8 °F 37.4 °F 77% 29.90 in 10.0 mi North 10.4 mph 23.0 mph N/A   Mostly Cloudy
2:35 AM 43.5 °F 38.9 °F 37.6 °F 80% 29.90 in 10.0 mi North 8.1 mph 20.7 mph N/A   Overcast
2:55 AM 43.0 °F 36.8 °F 36.9 °F 79% 29.90 in 10.0 mi North 11.5 mph 19.6 mph N/A   Mostly Cloudy
3:15 AM 42.8 °F 37.0 °F 36.5 °F 78% 29.91 in 10.0 mi North 10.4 mph 21.9 mph N/A   Mostly Cloudy
3:35 AM 42.4 °F 35.7 °F 36.0 °F 78% 29.91 in 10.0 mi North 12.7 mph 21.9 mph N/A   Scattered Clouds
3:55 AM 41.9 °F 36.3 °F 36.0 °F 79% 29.91 in 10.0 mi North 9.2 mph 16.1 mph N/A   Clear
4:15 AM 41.5 °F 35.9 °F 36.0 °F 81% 29.91 in 10.0 mi North 9.2 mph 17.3 mph N/A   Clear
4:55 AM 41.2 °F 35.0 °F 35.4 °F 80% 29.93 in 10.0 mi North 10.4 mph 17.3 mph N/A   Clear
5:15 AM 40.8 °F 35.0 °F 34.3 °F 78% 29.94 in 10.0 mi North 9.2 mph 18.4 mph N/A   Scattered Clouds
5:35 AM 41.0 °F 34.7 °F 34.0 °F 76% 29.95 in 10.0 mi North 10.4 mph 23.0 mph N/A   Scattered Clouds
5:55 AM 40.6 °F 33.8 °F 33.8 °F 77% 29.96 in 10.0 mi North 11.5 mph 18.4 mph N/A   Scattered Clouds
6:15 AM 40.6 °F 34.3 °F 32.7 °F 73% 29.97 in 10.0 mi NNW 10.4 mph 17.3 mph N/A   Scattered Clouds
6:35 AM 40.5 °F 35.8 °F 32.9 °F 74% 29.98 in 10.0 mi North 6.9 mph - N/A   Scattered Clouds
6:55 AM 40.8 °F 35.0 °F 32.9 °F 73% 29.99 in 10.0 mi North 9.2 mph 16.1 mph N/A   Overcast
7:15 AM 40.8 °F 35.6 °F 32.9 °F 73% 29.99 in 10.0 mi North 8.1 mph - N/A   Overcast
7:35 AM 40.3 °F 34.9 °F 33.1 °F 75% 29.99 in 10.0 mi North 8.1 mph - N/A   Scattered Clouds
7:55 AM 40.1 °F 34.7 °F 33.1 °F 76% 29.99 in 10.0 mi North 8.1 mph - N/A   Scattered Clouds
8:15 AM 40.8 °F 37.8 °F 33.1 °F 74% 30.00 in 10.0 mi North 4.6 mph - N/A   Scattered Clouds
8:35 AM 41.4 °F 37.6 °F 32.9 °F 72% 30.00 in 10.0 mi North 5.8 mph - N/A   Scattered Clouds
8:55 AM 41.9 °F 36.9 °F 32.9 °F 70% 30.00 in 10.0 mi North 8.1 mph - N/A   Scattered Clouds
9:15 AM 42.6 °F 37.8 °F 32.9 °F 68% 30.01 in 10.0 mi North 8.1 mph - N/A   Scattered Clouds
9:35 AM 43.0 °F 38.2 °F 32.5 °F 67% 30.01 in 10.0 mi North 8.1 mph - N/A   Mostly Cloudy
9:55 AM 43.2 °F 41.5 °F 32.0 °F 65% 30.01 in 10.0 mi North 3.5 mph - N/A   Mostly Cloudy
10:15 AM 43.7 °F 42.1 °F 31.8 °F 63% 30.01 in 10.0 mi NNW 3.5 mph - N/A   Mostly Cloudy
10:35 AM 43.7 °F 39.7 °F 30.4 °F 59% 30.01 in 10.0 mi North 6.9 mph - N/A   Scattered Clouds
10:55 AM 44.6 °F 39.7 °F 29.1 °F 55% 30.01 in 10.0 mi North 9.2 mph - N/A   Clear
11:15 AM 44.4 °F 40.0 °F 27.3 °F 51% 30.01 in 10.0 mi NNW 8.1 mph - N/A   Clear
11:35 AM 45.3 °F 42.3 °F 25.9 °F 47% 30.00 in 10.0 mi North 5.8 mph - N/A   Clear
11:55 AM 45.7 °F 41.5 °F 26.8 °F 48% 30.00 in 10.0 mi NNE 8.1 mph - N/A   Clear
12:15 PM 45.9 °F 42.9 °F 27.1 °F 48% 30.00 in 10.0 mi North 5.8 mph - N/A   Clear
12:35 PM 46.2 °F 43.3 °F 27.3 °F 48% 29.99 in 10.0 mi North 5.8 mph - N/A   Clear
12:55 PM 47.1 °F - 28.0 °F 48% 29.99 in 10.0 mi Calm Calm - N/A   Clear
1:15 PM 47.3 °F - 28.4 °F 48% 29.99 in 10.0 mi WNW 5.8 mph - N/A   Clear
1:35 PM 47.8 °F - 31.1 °F 52% 29.98 in 10.0 mi WSW 4.6 mph - N/A   Clear
1:55 PM 47.8 °F - 30.0 °F 50% 29.96 in 10.0 mi Calm Calm - N/A   Clear
2:15 PM 48.7 °F - 30.0 °F 48% 29.96 in 10.0 mi WNW 4.6 mph - N/A   Clear
2:35 PM 49.1 °F - 30.0 °F 48% 29.96 in 10.0 mi Calm Calm - N/A   Clear
3:15 PM 49.8 °F - 28.0 °F 43% 29.94 in 10.0 mi Calm Calm - N/A   Clear
3:35 PM 49.3 °F - 27.1 °F 42% 29.93 in 10.0 mi Calm Calm - N/A   Clear
3:55 PM 50.9 °F - 27.1 °F 40% 29.93 in 10.0 mi West 5.8 mph - N/A   Clear
4:15 PM 51.6 °F - 26.2 °F 37% 29.92 in 10.0 mi West 9.2 mph 16.1 mph N/A   Scattered Clouds
4:35 PM 51.6 °F - 25.5 °F 36% 29.92 in 10.0 mi West 8.1 mph 16.1 mph N/A   Scattered Clouds
4:55 PM 52.2 °F - 26.4 °F 37% 29.92 in 10.0 mi West 10.4 mph 17.3 mph N/A   Clear
5:15 PM 52.0 °F - 25.9 °F 36% 29.92 in 10.0 mi West 11.5 mph 16.1 mph N/A   Clear
5:35 PM 51.6 °F - 24.4 °F 35% 29.92 in 10.0 mi West 6.9 mph 16.1 mph N/A   Clear
5:55 PM 51.6 °F - 25.0 °F 36% 29.92 in 10.0 mi West 8.1 mph - N/A   Clear
6:15 PM 50.5 °F - 27.0 °F 40% 29.93 in 10.0 mi SSW 3.5 mph - N/A   Clear
6:35 PM 47.1 °F - 33.8 °F 60% 29.93 in 10.0 mi South 4.6 mph - N/A   Scattered Clouds
6:55 PM 45.1 °F 42.8 °F 32.7 °F 62% 29.94 in 10.0 mi South 4.6 mph - N/A   Clear
7:15 PM 44.4 °F - 33.3 °F 65% 29.95 in 10.0 mi Calm Calm - N/A   Scattered Clouds
7:35 PM 43.9 °F 41.3 °F 34.5 °F 70% 29.95 in 10.0 mi South 4.6 mph - N/A   Scattered Clouds
7:55 PM 43.9 °F 42.3 °F 35.1 °F 71% 29.96 in 10.0 mi SSE 3.5 mph - N/A   Scattered Clouds
8:15 PM 43.9 °F 42.3 °F 35.1 °F 71% 29.96 in 10.0 mi South 3.5 mph - N/A   Scattered Clouds
8:35 PM 43.9 °F 42.3 °F 35.2 °F 72% 29.97 in 10.0 mi South 3.5 mph - N/A   Mostly Cloudy
8:55 PM 44.8 °F 42.4 °F 36.0 °F 71% 29.97 in 10.0 mi SSW 4.6 mph - N/A   Mostly Cloudy
9:15 PM 45.3 °F 43.0 °F 36.7 °F 72% 29.98 in 10.0 mi South 4.6 mph - N/A   Overcast
9:35 PM 45.1 °F 43.7 °F 37.2 °F 74% 29.99 in 10.0 mi SSW 3.5 mph - N/A   Scattered Clouds
9:55 PM 44.1 °F - 37.4 °F 77% 30.00 in 10.0 mi Calm Calm - N/A   Clear
10:15 PM 43.0 °F - 37.2 °F 80% 30.00 in 10.0 mi Calm Calm - N/A   Clear
10:35 PM 42.3 °F 40.5 °F 37.2 °F 82% 30.01 in 10.0 mi North 3.5 mph - N/A   Clear
10:55 PM 42.4 °F 40.7 °F 34.5 °F 74% 30.01 in 10.0 mi North 3.5 mph - N/A   Clear
11:15 PM 42.4 °F - 31.8 °F 66% 30.01 in 10.0 mi Calm Calm - N/A   Clear
11:35 PM 42.1 °F 40.2 °F 30.6 °F 64% 30.02 in 10.0 mi NNW 3.5 mph - N/A   Clear
11:55 PM 42.1 °F 36.6 °F 31.3 °F 66% 30.02 in 10.0 mi NW 9.2 mph - N/A   Clear